Home   Weather   Inverness   Past weeks

Flag for USA Past Weather in Inverness, Florida, USA — Yesterday and Last 2 Weeks

Now
75 °F

Fog.


Feels Like: 73 °F
Forecast: 71 / 84 °F
Wind: N/A

Location: The Villages

Current Time: Sep 29, 2016 at 2:48:00 PM

Latest Report: Sep 29, 2016 at 2:15 PM


Visibility: 3 mi

Pressure: 29.94 "Hg

Humidity: 100%

Dew Point: 75 °F

Location of InvernessLocation

Past Weather in Inverness — Graph

°F

Inverness Temperature Yesterday

Maximum temperature yesterday: 88 °F (at 12:55 PM)
Minimum temperature yesterday: 72 °F (at 4:55 AM)
Average temperature yesterday: 77 °F

High & Low Weather Summary for the Past Weeks

 TemperatureHumidityPressure
High93 °F (Sep 18, 5:35 PM)100% (Sep 14, 1:35 PM)29.99 "Hg (Sep 14, 1:35 PM)
Low70 °F (Sep 27, 5:35 AM)56% (Sep 24, 5:55 PM)29.78 "Hg (Sep 27, 3:55 PM)
Average81 °F92%29.90 "Hg
* Reported Sep 14 1:15 PM — Sep 29 1:15 PM, Inverness, Weather by CustomWeather, © 2016

Note: Actual official high and low records may vary slightly from our data, if they occured in-between our weather recording intervals... More about our weather records

Advertising

Inverness Weather History for the Previous 24 Hours

Scroll right to see more
 ConditionsComfort  
Time TempWeatherWind HumidityBarometerVisibility
1:15 PM
Thu, Sep 29
79 °FWarm.No wind100%29.94 "Hg10 mi
12:55 PM79 °FFog.N/A100%29.94 "Hg2 mi
12:15 PM86 °FWarm.8 mph89%29.94 "Hg10 mi
11:55 AM86 °FWarm.7 mph89%29.93 "Hg10 mi
11:35 AM86 °FWarm.10 mph89%29.94 "Hg10 mi
11:15 AM86 °FWarm.8 mph94%29.95 "Hg10 mi
10:55 AM86 °FWarm.N/A94%29.94 "Hg10 mi
10:35 AM84 °FWarm.N/A94%29.94 "Hg10 mi
10:15 AM82 °FWarm.N/A100%29.94 "Hg10 mi
9:55 AM81 °FWarm.6 mph100%29.94 "Hg10 mi
9:35 AM81 °FWarm.N/A100%29.93 "Hg10 mi
9:15 AM79 °FWarm.N/A100%29.93 "Hg10 mi
8:55 AM77 °FWarm.N/A100%29.93 "Hg10 mi
8:15 AM75 °FMild.No wind100%29.93 "Hg10 mi
7:55 AM73 °FMild.No wind100%29.92 "Hg10 mi
7:15 AM72 °FMild.No wind100%29.92 "Hg10 mi
6:55 AM72 °FMild.No wind100%29.91 "Hg10 mi
6:35 AM72 °FMild.No wind100%29.90 "Hg10 mi
6:15 AM72 °FMild.No wind100%29.91 "Hg10 mi
5:55 AM72 °FMild.No wind100%29.90 "Hg10 mi
5:35 AM72 °FMild.No wind100%29.90 "HgN/A
5:15 AM72 °FMild.No wind100%29.89 "Hg10 mi
4:55 AM72 °FMild.No wind100%29.89 "Hg10 mi
4:15 AM72 °FMild.No wind100%29.90 "Hg10 mi
3:55 AM72 °FMild.No wind100%29.90 "Hg10 mi
3:35 AM72 °FMild.No wind100%29.91 "Hg10 mi
3:15 AM72 °FMild.N/A100%29.91 "Hg10 mi
2:55 AM72 °FMild.N/A100%29.91 "Hg10 mi
2:15 AM72 °FMild.No wind100%29.92 "Hg10 mi
1:55 AM72 °FMild.No wind100%29.92 "Hg10 mi
1:15 AM72 °FMild.N/A100%29.93 "Hg10 mi
12:35 AM72 °FMild.No wind100%29.94 "Hg10 mi
12:15 AM72 °FMild.No wind100%29.94 "Hg10 mi
11:55 PM
Wed, Sep 28
73 °FMild.N/A100%29.93 "Hg10 mi
11:35 PM73 °FMild.No wind100%29.93 "Hg10 mi
11:15 PM73 °FMild.No wind100%29.93 "Hg10 mi
10:55 PM72 °FMild.No wind100%29.93 "Hg10 mi
10:15 PM73 °FMild.No wind100%29.92 "Hg10 mi
9:55 PM73 °FMild.No wind100%29.93 "Hg10 mi
9:15 PM73 °FMild.No wind100%29.95 "Hg10 mi
8:55 PM73 °FMild.No wind100%29.95 "Hg10 mi
8:15 PM73 °FMild.N/A100%29.92 "Hg10 mi
7:55 PM73 °FMild.N/A100%29.92 "Hg10 mi
7:15 PM77 °FWarm.N/A100%29.91 "HgN/A
6:55 PM77 °FWarm.6 mph100%29.90 "Hg10 mi
6:10 PM77 °FWarm.No wind100%29.90 "Hg10 mi
5:55 PM79 °FWarm.No wind94%29.89 "Hg10 mi
5:35 PM79 °FWarm.No wind94%29.88 "Hg10 mi
5:15 PM79 °FWarm.No wind94%29.88 "Hg10 mi
4:55 PM79 °FWarm.No wind94%29.87 "Hg10 mi
4:15 PM82 °FWarm.9 mph84%29.88 "Hg10 mi
3:55 PM86 °FWarm.N/A79%29.87 "Hg10 mi
3:15 PM88 °FWarm.N/A75%29.87 "Hg10 mi
2:55 PM86 °FWarm.N/A75%29.88 "Hg10 mi
2:15 PM84 °FWarm.N/A79%29.89 "Hg10 mi
Weather by CustomWeather, © 2016

See weather overviewHow to use our weather pages